Regional Weather Roundup
Issued by NWS

Home | Current Version | Previous Version | Text Only | Print | Product List | Glossary Off
Versions: 1 2 3 4 5 6 7 8 9 10 11 12 13 14 15 16 17 18 19 20 21 22 23 24 25 26 27 28 29 30 31 32 33 34 35 36 37 38 39 40 41 42 43 44 45 46 47 48 49 50

000
ASUS45 KCYS 230210
RWRWY

WYOMING REGIONAL WEATHER ROUNDUP
NATIONAL WEATHER SERVICE CHEYENNE WY
700 PM MST SUN JAN 22 2017

NOTE:  "FAIR" INDICATES FEW OR NO CLOUDS BELOW 12,000 FEET
WITH NO SIGNIFICANT WEATHER AND/OR OBSTRUCTIONS TO VISIBILITY.

WYZ001-230300-
YELLOWSTONE NATIONAL PARK

CITY           SKY/WX    TMP DP  RH WIND       PRES   REMARKS
LK YELLOWSTONE   N/A     19  17  92 CALM      29.70F
W YELLOWSTONE  NOT AVBL

$$
WYZ002>013-054>058-071-098>099-230300-
NORTHERN WYOMING

CITY           SKY/WX    TMP DP  RH WIND       PRES   REMARKS
JACKSON        LGT SNOW  23  21  93 SW15      29.76R VSB 1   WCI  10
CODY           FAIR      23  15  71 NE6       29.70F WCI  16
GREYBULL       MOCLDY    10   7  87 NW3       29.75F
WORLAND        FAIR      15  11  83 CALM      29.73F
SHERIDAN       FAIR      22  17  81 VRB3      29.73F
BUFFALO        FAIR      28  17  63 SW6       29.72F WCI  22
GILLETTE       FAIR      30  20  66 S12       29.76F WCI  20
HULETT         FAIR      23  18  80 MISG      29.80S
NEWCASTLE      FAIR      27  19  74 E8        29.84F WCI  18

$$
WYZ014>020-022>026-101>103-230300-
CENTRAL WYOMING

CITY           SKY/WX    TMP DP  RH WIND       PRES   REMARKS
BIG PINEY      LGT SNOW  16  13  88 NE5       29.79F VSB 3/4 WCI   9
PINEDALE       LGT SNOW  18  18 100 SE3       29.80F VSB 1
DUBOIS         NOT AVBL
LANDER         FAIR      20  13  74 SE3       29.72F
RIVERTON       FAIR      16  10  77 CALM      29.73F
CASPER         MOCLDY    30  17  58 SW21      29.78F WCI  17
DOUGLAS        FAIR      28  13  53 E6        29.81F WCI  22

$$
WYZ021-027>030-104>119-230300-
SOUTHERN WYOMING

CITY           SKY/WX    TMP DP  RH WIND       PRES   REMARKS
EVANSTON       LGT SNOW  22  18  85 NE7       29.74R VSB 1   WCI  13
ROCK SPRINGS   LGT SNOW  26  20  77 S12       29.77F WCI  16
RAWLINS        MOCLDY    26  14  60 SW10      29.84F WCI  16
LARAMIE        FAIR      22   8  55 SW14      29.82F WCI   9
CHEYENNE       FAIR      28   9  44 SW5       29.86R WCI  23
TORRINGTON     FAIR      33  13  43 CALM      29.86S

$$



USA.gov is the U.S. government's official web portal to all federal, state and local government web resources and services.